RH
3 4 4 5 8 11 10 7 4 3 2 2 0 -0 0 1 1 2 2 2 3 2 2 2 2 2 2 2 2 2 2 2 2 2 2 2 2 2 2 2 3 3 4 4 4 4 4 3 3 3 3 3 3 3 6 8 10 12 12 12 13 16 18 19 19 19 18 17 16 17 17 15 14 15 14 13 13 14 14 14 17 19 19 19 21 22 21 20
3 3 4 6 9 9 6 3 2 2 2 1 -0 0 1 1 2 2 2 3 2 2 2 2 2 2 2 2 2 2 2 2 2 2 2 2 2 2 2 2 2 3 3 3 3 3 3 3 2 3 2 2 3 4 7 10 13 16 17 17 18 19 20 19 19 19 19 17 15 16 15 14 14 14 14 14 14 14 14 16 19 18 17 19 21 22 20 18
2 2 5 7 7 5 3 2 2 2 2 0 0 1 1 2 2 2 2 3 2 2 2 2 2 2 2 2 2 2 2 2 2 2 2 2 2 2 2 2 2 2 2 2 2 2 2 2 2 3 3 3 3 5 9 12 16 18 19 20 20 20 19 18 19 19 19 17 15 14 13 13 14 15 15 15 13 14 17 20 21 19 18 19 21 22 20 18
2 2 4 5 4 3 2 2 1 1 1 -0 1 1 2 2 2 2 3 3 2 2 2 2 2 2 2 2 2 2 3 3 2 3 3 2 2 2 2 2 2 2 2 3 3 4 4 4 4 4 5 6 7 11 14 16 19 19 20 20 19 19 17 18 18 17 17 15 13 13 13 13 14 16 16 16 14 16 20 21 21 20 20 19 21 22 22 22
1 2 3 3 2 2 2 2 1 1 0 0 1 2 2 2 2 3 3 3 3 3 3 2 2 2 2 2 2 2 4 5 4 4 4 2 2 2 2 3 4 5 7 7 8 8 9 9 8 9 11 11 13 16 18 19 20 19 19 18 18 17 16 16 16 15 15 14 14 13 12 12 15 16 15 15 17 20 23 21 17 16 18 17 17 19 21 22
1 2 2 2 1 2 1 1 0 0 0 1 2 2 3 2 3 3 4 4 3 4 3 2 2 2 2 2 2 2 3 4 4 4 3 2 2 3 5 7 10 12 14 14 14 13 13 13 12 14 15 16 17 18 19 20 19 17 15 15 16 15 14 15 16 16 15 14 14 12 10 12 16 16 13 16 21 23 24 22 17 14 14 13 13 16 18 19
1 1 1 1 1 1 1 0 0 0 1 2 2 3 3 3 3 4 5 5 4 4 3 2 2 2 2 2 2 2 3 3 3 3 4 5 7 10 12 15 16 17 18 17 17 16 15 15 15 15 16 17 17 18 18 17 15 14 13 14 15 16 18 19 18 15 14 13 12 10 10 14 19 16 12 19 24 24 21 17 15 12 11 11 11 13 15 15
0 1 1 0 1 0 0 0 0 1 2 2 3 3 3 3 4 5 6 6 5 3 2 2 2 2 2 2 3 3 5 7 8 9 12 13 14 16 18 18 17 16 16 15 14 14 14 13 13 14 14 15 15 14 13 12 12 11 12 14 16 19 21 19 15 12 12 12 11 11 11 16 19 15 15 23 23 19 15 13 12 12 12 14 14 14 15 15
0 1 0 0 1 1 1 1 2 2 2 3 3 3 3 4 6 7 7 6 4 3 3 3 3 3 3 4 5 6 10 13 15 17 17 17 17 17 18 16 13 12 12 12 11 12 12 11 11 11 11 11 12 11 9 10 10 10 13 13 14 18 18 14 12 12 12 12 12 10 10 14 16 16 20 22 18 14 14 15 16 16 16 16 16 16 16 16
1 1 1 1 1 2 2 2 2 3 3 3 3 3 5 7 8 8 6 5 4 3 3 4 5 7 9 10 11 12 15 17 17 17 15 14 13 13 13 11 10 10 10 10 9 10 10 9 9 9 9 10 10 9 9 10 9 10 13 12 12 15 14 12 11 11 11 11 11 8 6 9 14 19 21 17 17 19 19 20 19 18 18 16 15 13 13 14
2 2 2 2 2 2 2 3 3 3 3 4 5 6 8 9 9 7 5 4 4 4 5 9 12 14 16 16 14 14 14 14 13 12 11 10 9 9 9 9 9 9 9 8 8 9 9 9 9 8 9 10 9 9 10 9 9 11 10 11 13 13 12 10 9 9 8 8 8 5 4 8 13 18 19 19 23 24 22 21 20 18 17 17 16 15 14 14
3 3 2 3 3 3 3 3 3 5 6 7 9 10 11 10 7 5 5 6 8 10 13 16 17 16 16 14 12 12 10 10 9 8 8 8 8 9 9 9 9 8 8 8 7 7 8 9 9 9 9 9 9 9 9 9 11 9 7 11 11 9 9 7 5 7 7 7 7 5 4 7 12 13 17 24 26 24 22 21 18 18 18 19 18 17 16 16
3 3 3 3 3 4 5 6 7 10 11 12 12 12 11 9 7 8 10 13 16 17 17 16 14 13 12 11 9 9 9 8 8 9 9 9 10 9 9 9 8 8 8 8 8 8 11 10 8 8 8 8 8 7 8 10 8 5 8 11 5 4 7 5 5 7 8 8 6 6 6 6 11 14 20 26 25 22 21 19 17 18 20 21 20 19 18 17
4 4 4 5 6 7 9 11 13 14 14 14 13 12 11 11 13 16 18 18 18 17 15 12 11 10 10 10 9 9 10 10 11 11 10 10 10 9 9 8 8 9 9 9 10 12 13 8 6 7 6 6 5 5 8 9 5 3 7 8 3 3 5 5 6 6 7 8 7 9 9 10 15 21 24 25 23 21 21 21 19 20 22 22 23 22 20 19
6 6 7 9 11 13 14 15 15 15 15 14 13 13 15 17 19 19 18 17 15 14 13 12 11 11 11 11 11 12 12 12 13 12 11 10 9 8 8 8 8 8 9 11 13 15 13 6 5 6 4 5 4 4 7 6 3 3 4 4 3 4 4 5 7 5 5 7 11 12 10 14 22 28 29 25 23 22 22 24 19 19 25 25 25 23 21 20
9 11 12 14 15 16 16 16 16 16 16 16 17 18 20 20 19 17 16 15 15 14 13 13 12 12 12 12 11 12 12 11 11 10 10 10 9 9 8 8 8 8 10 13 15 15 10 5 5 5 3 4 3 3 5 3 2 2 3 3 3 3 4 5 6 6 4 5 12 15 11 16 25 30 31 27 25 24 25 25 19 19 26 27 26 23 22 22
17 18 18 19 18 17 17 17 18 19 20 20 21 21 21 20 18 18 17 16 15 14 14 14 14 13 11 11 11 10 9 9 9 10 10 10 10 9 9 8 7 9 10 12 15 12 7 5 4 4 3 3 2 2 4 5 3 2 3 3 2 3 4 5 5 4 3 3 10 13 11 16 27 33 33 29 26 25 26 24 20 23 28 28 26 24 24 24
22 22 21 20 18 18 20 21 23 23 22 21 21 21 20 18 16 15 15 14 13 13 13 13 14 13 10 10 9 9 9 9 9 10 10 9 9 8 8 7 6 8 8 10 12 8 5 6 4 3 3 2 1 1 4 8 7 4 3 3 3 2 3 6 6 4 3 2 6 11 8 11 25 32 24 18 20 22 24 24 25 29 31 28 25 24 26 26
23 22 21 20 20 22 24 24 24 21 19 18 18 18 17 15 14 13 13 13 12 12 12 12 11 11 10 10 9 9 10 9 8 9 8 6 7 7 6 5 5 6 6 7 8 6 4 4 2 2 1 2 2 3 5 7 6 4 3 3 4 3 4 7 7 5 4 2 3 9 8 8 21 28 15 8 15 22 25 28 31 34 31 27 25 26 27 27
23 22 22 23 23 24 24 23 20 17 16 16 16 15 15 15 14 14 13 12 11 12 14 14 13 12 10 10 9 9 9 8 7 6 6 5 5 6 5 4 5 6 5 5 5 4 3 2 1 1 2 4 4 3 5 5 5 4 4 4 5 5 5 7 7 6 6 4 3 6 8 8 16 22 15 9 17 25 28 29 32 34 31 27 27 28 29 30
24 24 24 24 23 23 21 19 16 16 17 17 17 16 15 14 13 13 12 11 11 12 12 14 15 15 12 9 8 7 7 7 5 4 4 4 4 5 4 4 6 6 3 3 4 3 2 1 1 2 3 3 4 4 4 5 5 4 4 4 5 5 4 8 7 6 7 6 5 7 7 6 9 14 14 13 21 29 28 27 33 34 30 28 29 30 31 32
24 23 22 22 21 19 17 16 17 18 18 18 18 16 14 14 13 12 11 11 11 11 11 11 11 13 14 12 9 6 5 5 4 4 4 4 4 3 4 5 5 4 3 2 2 2 1 2 2 3 3 3 4 4 4 6 5 5 6 4 5 5 4 7 6 6 8 6 6 8 6 6 7 10 14 15 22 29 26 28 37 37 34 34 32 31 31 33
21 20 19 18 17 16 16 17 18 18 18 19 17 15 14 13 12 12 11 11 12 11 10 9 8 8 10 13 11 6 3 3 4 4 4 4 3 3 4 4 4 4 3 2 2 2 2 3 3 3 4 4 4 4 4 6 5 6 7 5 6 5 6 8 5 5 7 7 8 7 6 8 7 7 12 15 21 28 29 36 45 43 41 40 34 33 34 34
18 17 16 15 15 16 18 18 18 19 19 18 16 14 14 13 12 11 10 9 10 10 9 8 7 5 5 8 11 7 3 3 4 4 4 4 4 4 4 4 5 5 4 2 2 2 3 4 4 4 5 4 4 4 4 4 5 6 7 6 6 4 6 8 6 5 6 7 9 8 8 8 7 8 13 17 25 31 33 39 47 46 44 43 40 41 44 41
16 15 15 16 17 18 18 19 18 18 18 17 16 16 15 14 13 13 13 10 8 8 8 8 7 6 5 5 8 9 5 3 3 4 4 4 4 4 4 4 5 5 5 4 3 3 4 4 4 5 4 4 4 4 3 4 5 6 7 7 5 4 5 6 7 6 6 8 9 15 22 16 7 7 13 20 26 29 31 36 44 45 45 48 47 49 51 52
15 15 16 17 18 18 18 18 18 18 18 17 17 16 16 16 16 19 21 16 9 7 7 7 7 7 6 4 5 8 7 3 3 4 5 4 5 5 4 4 4 5 7 6 5 4 4 4 4 4 4 3 4 4 4 4 5 6 7 6 5 6 6 6 7 7 9 11 12 24 33 23 10 7 13 23 25 24 25 30 37 40 43 47 49 52 54 56
16 16 17 17 17 18 17 17 17 17 16 16 16 16 17 17 18 19 19 17 13 9 7 7 7 6 5 4 4 5 6 5 4 4 4 5 5 5 5 4 4 4 6 7 8 6 4 4 4 4 3 3 4 4 4 4 6 7 6 6 6 6 7 7 7 8 10 12 14 27 33 23 15 10 14 22 23 22 19 21 31 38 43 47 52 60 63 64
17 17 17 17 16 16 15 15 16 16 16 16 15 16 16 17 18 17 16 18 15 11 9 8 6 5 5 5 5 4 5 5 4 4 4 5 5 5 5 4 4 4 4 6 8 8 6 5 4 4 4 5 4 4 5 4 5 6 7 8 7 8 8 7 9 10 12 13 15 24 28 24 21 15 15 21 22 21 18 21 33 41 47 53 59 68 72 77
16 16 16 15 16 15 15 15 15 15 15 15 15 16 16 16 17 14 12 15 13 9 8 7 6 6 5 6 5 5 5 5 4 4 4 5 6 6 5 5 5 5 5 5 6 9 9 6 5 5 5 7 6 4 5 5 6 8 9 8 8 9 9 9 12 11 14 16 14 21 27 29 31 21 15 20 22 25 27 34 45 48 51 55 59 68 75 80
15 15 15 15 15 15 15 15 15 16 15 15 16 17 18 20 18 14 13 15 12 8 6 5 5 6 5 6 5 5 5 5 5 5 4 4 5 5 5 5 5 5 5 5 5 9 11 8 6 6 7 9 7 5 6 6 8 9 9 9 9 10 10 13 15 10 16 22 16 18 24 33 44 37 25 27 31 37 43 47 51 50 53 57 58 65 72 77
14 14 14 14 14 15 15 15 15 15 14 14 14 16 18 18 16 14 17 17 11 6 5 4 5 5 4 5 4 4 5 5 5 5 4 4 3 4 4 5 5 5 5 6 6 8 10 9 6 7 10 10 7 7 7 8 10 10 10 10 10 11 12 15 17 14 20 27 19 18 24 36 52 46 35 37 44 54 59 53 49 51 58 66 69 72 76 81
13 13 13 13 14 14 14 14 14 13 13 13 13 15 15 11 10 13 17 15 11 7 5 4 4 4 4 5 4 4 4 4 5 5 5 5 4 4 4 4 5 6 7 7 7 9 10 9 8 9 10 9 9 9 9 10 11 11 11 11 18 30 31 31 37 34 30 26 18 21 33 41 44 40 37 44 54 64 70 68 66 68 73 77 79 80 81 85
12 12 12 12 12 12 12 12 13 12 13 13 12 12 9 7 10 13 14 12 9 7 5 4 4 4 4 4 5 5 4 5 4 5 6 6 4 4 5 5 5 7 9 9 9 10 11 11 9 10 11 9 9 9 10 11 11 13 14 15 28 47 56 61 64 51 35 26 19 27 44 42 34 36 40 43 49 58 67 76 80 79 79 78 77 77 79 80
11 11 10 10 9 9 8 7 9 10 11 9 7 5 4 5 8 9 9 9 7 7 6 4 4 4 4 4 5 5 5 5 4 5 6 6 5 5 6 6 6 8 9 11 11 11 15 15 12 11 12 10 10 11 11 12 14 16 15 18 27 40 55 66 64 47 36 38 34 34 41 35 28 35 43 44 48 56 68 77 79 78 78 76 76 78 79 78
10 8 8 7 6 6 6 4 5 6 6 5 3 3 4 7 8 8 8 7 7 8 8 6 4 4 4 4 4 4 5 5 4 5 5 6 7 6 7 7 7 9 10 13 14 13 14 15 12 12 12 11 11 12 12 13 15 16 16 20 24 31 43 52 50 42 46 63 62 44 35 30 28 36 42 43 47 59 72 75 74 73 72 72 77 80 81 78
7 6 6 5 5 4 4 4 4 4 4 4 3 3 5 7 8 8 7 6 5 6 8 9 6 3 3 4 3 4 5 5 4 6 6 8 9 7 8 8 8 10 11 14 16 16 15 13 12 13 12 12 13 13 14 14 15 17 19 20 21 27 40 51 53 45 52 72 66 41 32 32 35 41 42 44 50 58 64 62 59 60 62 69 78 81 79 74
4 4 4 4 4 3 3 3 3 3 3 3 3 4 5 6 6 6 6 5 4 3 5 7 5 4 4 4 3 3 4 5 6 7 7 9 12 10 9 9 9 10 12 14 16 18 19 15 12 13 13 13 13 13 14 16 17 20 21 20 21 27 35 50 62 58 61 73 60 36 34 37 40 46 46 47 50 51 52 54 57 61 66 72 77 77 73 65
2 2 2 2 3 3 2 2 2 2 3 3 4 5 5 5 5 4 4 4 4 4 3 4 4 4 4 4 4 4 5 6 7 8 8 10 13 13 10 9 9 10 12 14 15 15 18 18 14 13 14 13 13 14 15 14 15 19 23 23 26 35 40 46 58 60 63 74 69 49 40 39 44 49 49 51 55 60 66 70 73 76 77 77 77 74 68 55
2 2 2 2 2 3 3 3 3 3 4 4 4 5 5 4 4 4 4 4 4 4 3 3 3 3 4 5 6 5 6 8 8 9 9 10 14 15 12 10 10 11 12 13 14 14 17 22 18 13 13 12 11 13 14 14 16 20 26 29 33 42 47 46 50 55 61 74 79 68 54 48 52 56 58 67 77 83 84 81 82 86 87 87 83 72 58 41
2 2 2 3 2 3 3 3 3 3 4 4 4 4 4 4 3 3 4 4 5 4 3 3 4 5 5 7 8 7 8 9 9 9 9 10 13 14 12 10 10 12 13 13 15 14 16 22 19 13 12 11 11 14 16 19 23 27 31 35 39 42 45 48 48 48 57 73 82 84 74 59 59 69 77 86 88 82 81 87 94 98 98 92 77 57 40 27
3 2 3 3 3 4 3 3 4 4 4 4 4 4 4 4 3 3 3 3 4 5 5 5 6 7 7 9 10 9 9 10 10 10 10 10 12 13 13 11 10 13 14 14 15 15 17 20 18 14 12 10 10 11 15 22 27 31 35 38 43 47 52 64 66 54 59 75 82 91 91 74 71 85 89 85 77 71 81 95 100 101 96 83 62 42 28 18
2 2 3 3 3 4 3 4 4 4 5 4 4 5 4 4 4 4 4 4 4 6 7 7 8 8 9 9 10 10 10 11 11 11 11 11 12 13 13 12 12 14 14 14 15 16 18 18 16 14 12 10 10 11 15 23 26 28 35 39 46 55 65 81 89 81 81 86 83 90 96 80 75 87 84 75 77 82 92 99 99 96 84 65 47 32 19 14
3 3 3 3 3 4 4 4 5 5 5 5 5 5 4 5 4 4 5 6 6 7 8 9 9 9 9 9 10 10 10 10 11 12 12 12 13 14 13 13 14 14 15 15 16 17 18 19 17 13 9 7 7 8 11 19 26 31 38 44 51 64 78 86 91 94 95 93 90 97 96 73 67 81 81 78 89 97 98 96 92 83 64 44 32 22 15 16
3 3 4 3 4 4 4 5 5 6 6 5 5 5 5 6 6 6 7 7 8 8 8 9 9 9 9 8 9 9 9 10 11 12 13 13 14 14 14 13 14 15 16 15 17 18 18 20 21 19 20 19 15 14 15 18 28 38 44 49 56 67 80 84 85 92 92 86 90 103 98 76 74 84 77 73 87 97 96 89 77 62 43 29 21 17 19 25
3 4 4 4 4 4 4 5 6 6 6 6 6 6 7 7 8 8 8 8 8 9 9 9 8 9 9 8 8 8 9 10 11 13 14 13 14 15 14 14 15 16 16 17 18 18 18 21 24 25 32 39 37 33 30 28 33 40 44 52 62 71 80 85 89 94 93 88 92 102 98 87 85 81 65 64 84 96 89 73 56 40 27 19 20 26 36 46
4 4 5 5 5 5 5 6 6 6 6 6 7 7 8 8 8 9 9 8 8 8 9 8 8 8 8 8 9 8 9 11 12 14 15 14 15 15 14 15 16 16 17 18 18 17 17 21 25 24 24 30 34 31 29 34 41 45 48 55 68 80 88 92 95 96 98 99 96 90 92 97 90 71 60 72 91 91 73 52 36 25 20 22 35 48 57 64
4 5 5 5 6 6 6 7 7 7 7 7 7 8 8 8 8 8 8 8 8 8 8 8 7 7 7 8 9 9 11 13 14 15 15 15 16 15 15 15 16 17 18 18 18 17 16 19 23 23 17 18 24 26 31 43 50 50 54 61 74 84 87 92 99 99 99 103 96 82 88 99 86 63 65 83 87 71 49 34 25 23 30 45 59 66 68 73
5 6 6 5 6 6 6 7 7 7 7 7 8 8 8 8 8 8 8 8 8 8 7 7 7 7 7 8 9 10 12 14 15 16 16 16 16 16 16 15 16 19 18 18 17 15 16 18 16 16 14 13 21 29 39 52 55 51 55 63 72 79 82 91 100 101 99 101 97 87 87 86 68 56 69 79 68 49 32 23 25 35 50 62 68 70 77 86
6 6 6 6 6 6 7 7 7 8 7 7 8 8 8 8 8 8 8 7 7 7 7 7 6 6 7 8 9 11 14 15 16 16 16 17 17 16 16 16 17 19 18 17 16 14 16 16 12 14 13 11 20 33 44 53 52 48 55 63 65 69 84 98 101 99 98 95 90 84 75 60 48 55 69 64 47 33 24 25 38 52 61 64 65 73 87 98
7 6 6 7 7 7 7 7 7 7 7 8 8 7 8 8 7 8 7 7 7 6 6 6 6 6 7 8 11 13 16 17 17 17 18 17 17 17 17 17 18 18 17 16 14 14 16 13 12 15 14 11 18 32 40 43 43 46 55 58 53 59 81 99 101 99 97 89 78 69 55 43 45 59 62 46 32 27 29 41 57 63 62 64 70 83 96 101
8 7 7 7 7 7 7 7 7 7 7 8 7 7 7 7 7 7 7 7 6 6 6 6 6 7 7 9 13 15 17 18 18 18 18 17 17 17 17 17 18 17 16 15 15 15 15 13 11 15 19 16 17 27 34 33 35 45 53 53 56 72 91 100 101 97 90 81 67 52 45 51 57 57 45 29 26 32 43 59 67 64 60 65 79 95 101 101
9 8 8 7 7 7 8 7 7 7 7 8 7 7 7 7 7 7 6 6 6 5 6 6 6 7 8 11 15 17 18 19 19 18 18 17 16 16 17 17 16 17 16 16 18 16 15 16 16 22 31 27 21 27 29 28 34 43 50 61 79 95 101 97 95 91 79 66 53 43 48 56 50 41 34 29 31 45 62 70 67 65 68 73 85 99 101 100
Wind_Speed
10 8 8 6 5 3 3 3 3 3 3 4 4 4 3 2 2 3 5 6 7 8 8 7 7 6 4 3 3 2 2 3 4 5 5 6 7 7 7 7 7 8 8 9 9 10 12 11 11 11 12 12 12 12 12 13 13 14 15 17 19 20 19 18 18 20 23 23 22 23 24 26 24 23 24 24 23 23 23 21 20 20 20 19 18 19 19 19
9 9 7 5 4 4 4 3 3 3 4 4 4 3 3 2 3 4 6 7 8 8 7 6 6 5 4 3 3 2 2 3 4 5 5 6 7 7 7 7 8 8 8 9 9 11 12 12 12 12 12 13 13 11 11 12 13 13 15 17 17 17 17 17 18 20 22 24 24 24 24 25 24 24 25 24 23 23 22 18 17 18 18 18 19 21 21 20
9 8 6 5 4 4 4 3 3 4 4 4 3 2 2 3 4 6 7 7 7 6 6 6 5 4 3 2 2 2 2 3 4 4 5 6 7 7 7 8 8 9 9 10 10 11 12 12 12 11 11 11 11 10 10 11 12 13 14 16 16 16 17 17 19 20 22 24 24 23 23 22 22 23 24 24 24 20 17 15 16 17 17 17 18 21 23 21
9 7 6 5 5 4 4 3 4 4 4 3 2 1 2 4 5 6 7 6 6 5 5 5 3 2 1 1 1 1 2 3 3 4 5 6 7 7 8 8 9 10 10 10 10 10 10 10 9 9 9 9 9 9 10 10 11 12 13 15 16 17 18 18 19 20 21 23 23 22 23 21 21 21 21 23 23 17 12 14 15 15 15 15 15 18 20 20
8 7 7 6 5 5 4 4 4 3 3 3 1 1 3 5 6 6 6 6 5 4 4 4 3 2 1 1 1 1 3 3 3 5 6 6 7 8 8 8 8 9 9 9 9 9 9 9 8 8 7 8 8 9 9 10 12 13 14 15 16 18 18 18 19 20 20 21 21 21 22 21 20 20 21 21 19 15 13 15 16 15 16 16 16 17 19 20
8 8 7 6 5 5 4 4 3 3 3 2 1 2 4 6 6 6 5 5 4 4 5 5 4 3 2 2 1 2 4 4 4 6 6 6 7 8 8 8 8 8 8 8 9 9 9 10 9 7 7 7 8 9 10 11 13 14 14 14 15 17 17 17 17 18 19 19 20 21 22 21 20 21 20 17 14 15 17 18 19 18 19 21 21 21 21 22
9 8 7 6 6 5 4 4 3 3 2 1 1 4 5 6 5 5 5 4 4 5 5 4 3 3 3 2 2 3 3 4 5 5 6 7 7 7 7 7 7 7 7 8 9 9 9 10 9 7 7 7 8 9 10 12 14 14 14 13 14 15 16 16 16 17 19 20 21 22 22 20 21 22 19 15 13 17 20 21 23 24 24 26 27 26 27 28
9 8 7 7 6 5 4 3 3 3 2 1 3 5 5 4 4 4 4 4 4 4 4 3 3 3 3 3 4 4 5 6 6 6 7 7 6 6 6 7 7 7 7 7 8 8 8 8 8 8 8 9 10 10 11 13 12 12 12 12 13 14 14 15 16 18 19 20 21 22 21 20 22 23 19 15 18 22 25 27 28 27 24 24 24 24 26 28
9 8 7 7 6 5 4 4 4 3 2 3 4 4 3 3 3 4 4 4 4 3 3 3 4 4 4 5 5 5 6 6 6 6 6 5 5 6 6 6 6 6 6 6 6 8 9 9 10 10 10 10 10 11 12 11 11 12 11 12 13 12 13 16 16 18 19 20 21 20 20 20 21 20 15 17 23 25 24 23 21 20 19 19 20 20 21 22
9 8 8 7 6 5 5 5 3 2 3 3 3 2 1 2 3 3 3 4 3 4 4 4 5 6 6 6 5 5 6 6 5 5 5 6 6 6 6 6 6 7 7 7 9 10 11 11 11 11 11 11 11 12 12 11 12 12 11 14 13 11 14 17 16 17 19 19 20 20 19 18 17 15 17 21 22 22 19 15 16 18 20 20 21 21 21 21
9 9 8 7 6 6 5 4 3 3 2 1 1 2 2 2 3 3 3 4 5 5 5 6 7 6 6 6 5 5 6 5 5 6 7 7 7 7 7 8 9 10 10 10 11 11 11 12 12 12 11 11 12 12 11 13 13 12 12 12 11 12 14 15 16 16 17 18 20 23 19 14 15 17 21 22 20 18 17 17 19 20 20 20 21 21 22 22
9 9 8 7 6 5 4 3 2 1 0 2 3 3 3 3 3 4 5 6 6 7 8 8 7 7 7 6 6 7 7 8 8 8 8 8 9 10 11 12 12 12 12 12 11 10 11 12 13 12 12 11 11 11 12 12 11 12 13 8 8 11 13 15 16 16 18 19 21 24 18 13 17 20 21 20 17 16 18 20 21 21 21 20 20 21 21 22
9 8 7 6 5 4 3 2 2 3 4 5 5 4 4 5 6 7 7 7 8 8 9 7 7 8 8 8 9 10 10 10 10 10 10 10 11 12 14 14 13 13 12 12 10 10 11 12 13 12 12 10 11 12 11 9 11 14 12 9 11 11 13 17 16 15 17 19 21 22 19 17 17 16 17 17 14 15 17 20 23 21 20 19 19 20 20 21
8 7 6 5 4 4 4 4 5 6 7 6 5 5 6 7 8 8 8 8 8 8 7 7 8 9 10 11 11 11 11 12 12 12 13 12 11 12 12 12 12 11 11 11 10 9 10 13 12 11 12 12 13 13 10 10 13 15 12 12 18 17 16 18 16 16 16 17 19 19 19 19 16 11 11 13 14 16 17 22 25 21 18 18 18 19 18 19
7 6 6 6 6 6 6 7 8 8 7 6 6 7 8 9 9 9 9 9 8 8 9 9 9 9 11 11 12 13 13 13 12 12 13 13 12 11 11 11 11 10 10 10 9 9 10 13 12 12 15 14 14 13 9 10 15 16 16 17 21 22 19 18 17 20 20 17 18 19 19 19 16 11 9 10 12 15 18 23 25 22 20 19 18 17 16 17
8 8 8 7 8 8 9 9 9 8 8 7 8 9 9 9 9 9 9 9 9 9 10 9 10 10 10 11 13 13 12 11 11 11 11 12 11 11 12 11 11 11 10 10 9 10 11 12 13 14 15 12 12 13 9 13 19 21 22 22 23 25 23 19 17 20 22 19 17 17 19 18 15 12 10 10 12 15 19 24 25 23 21 20 19 16 16 17
10 10 9 10 10 11 11 11 10 9 8 8 9 10 10 9 9 9 9 9 10 10 10 10 10 10 11 12 13 12 11 12 11 11 11 11 11 11 12 12 12 12 11 11 10 10 11 12 13 12 14 14 16 18 15 17 23 24 24 24 25 26 24 21 19 20 21 19 16 15 17 16 15 13 12 13 15 18 21 23 22 21 20 19 18 16 18 20
11 11 12 12 13 12 12 11 10 9 9 9 10 10 9 9 9 9 9 9 9 10 11 12 10 10 12 13 12 13 14 13 12 11 10 11 11 10 12 12 13 11 11 12 9 10 11 10 11 11 16 20 22 25 22 18 21 24 25 26 26 28 25 20 21 23 22 18 15 15 16 16 14 12 14 17 19 21 21 21 19 18 19 17 16 17 19 20
13 14 14 14 13 13 12 12 11 11 12 11 11 11 11 11 11 10 10 8 8 9 12 14 14 14 15 14 14 14 14 14 13 11 10 12 11 10 11 11 12 11 11 11 8 11 14 10 12 17 22 24 25 26 23 19 19 22 24 25 27 30 27 17 19 24 23 22 19 16 17 17 14 10 14 21 20 19 20 19 17 17 17 15 15 17 19 20
16 15 15 14 14 14 14 14 14 15 15 15 14 13 13 13 12 12 10 8 10 13 14 14 15 16 16 16 15 14 13 14 14 11 10 11 11 10 11 12 11 9 10 11 11 13 15 15 20 24 23 23 23 22 21 19 18 20 23 25 26 32 29 18 20 25 22 24 24 20 19 18 15 13 15 21 19 18 19 17 17 16 15 16 17 18 19 19
16 16 15 16 16 16 16 16 16 16 16 16 15 14 13 12 13 13 11 11 15 18 16 15 13 12 12 14 14 14 13 12 13 12 9 10 10 10 11 12 10 9 13 16 15 13 16 21 23 22 21 21 21 20 21 20 17 20 24 27 28 32 33 21 22 27 23 25 24 23 23 17 15 16 16 19 16 16 18 17 17 16 15 17 17 16 16 15
16 16 16 16 17 17 18 17 17 16 15 16 14 13 14 14 15 15 15 17 19 19 18 16 13 10 9 8 11 15 12 7 8 10 10 11 12 12 12 12 11 12 16 19 17 14 18 23 21 19 20 20 20 20 21 20 18 20 24 29 31 34 36 28 27 28 22 25 24 25 25 16 21 23 15 17 17 15 19 19 17 15 14 14 14 16 16 15
17 17 17 18 18 18 18 17 16 16 16 16 15 15 16 17 17 16 16 18 18 18 17 15 14 12 9 6 8 13 11 7 8 11 12 14 14 14 14 13 13 14 15 18 19 18 20 22 20 20 20 20 21 21 22 21 21 22 25 31 33 35 37 32 33 30 22 23 23 25 24 15 25 28 16 17 18 16 17 15 13 11 11 12 15 18 18 19
18 18 19 19 19 18 17 16 16 16 15 15 15 15 16 16 17 16 17 18 17 16 15 14 14 13 11 9 8 11 14 13 12 14 15 16 16 16 15 15 15 13 14 17 20 21 21 21 22 21 20 21 22 22 24 25 25 25 27 30 32 36 36 31 34 31 24 23 21 25 23 16 27 29 19 17 13 11 11 8 7 8 11 14 16 17 17 19
19 19 19 18 17 15 15 15 14 14 13 12 12 11 11 13 14 14 14 15 17 16 14 14 14 15 15 13 10 11 15 16 15 16 17 16 17 16 15 16 16 15 15 15 18 21 21 21 23 23 22 23 23 25 27 29 29 27 28 29 32 37 33 28 30 28 25 24 22 21 14 17 32 32 21 14 6 5 6 7 9 10 12 14 17 18 17 16
18 17 16 15 13 12 12 12 10 9 7 7 6 6 8 8 6 7 8 9 14 16 16 15 14 16 16 16 14 10 12 17 17 17 16 16 16 16 16 17 17 17 15 13 15 20 21 22 23 24 24 24 25 26 28 30 29 29 30 29 33 35 30 27 27 24 22 21 21 15 6 15 33 35 23 12 9 10 7 8 12 14 15 16 18 20 20 19
16 14 13 11 10 9 9 7 6 4 3 4 5 5 4 1 5 7 5 4 11 16 17 16 15 16 17 18 17 13 12 15 16 15 15 15 16 16 16 18 19 19 18 14 13 16 20 21 22 24 26 27 29 28 28 30 28 29 30 30 35 33 27 27 22 20 22 19 15 10 7 13 24 31 25 15 15 15 12 13 15 15 16 17 18 19 19 19
13 11 10 8 7 6 5 4 3 2 2 4 5 4 4 5 5 5 2 3 7 13 14 15 15 16 17 17 17 17 15 14 14 16 16 15 15 14 15 17 19 20 20 17 13 13 18 21 22 25 28 30 30 26 25 27 26 29 29 32 35 29 27 26 17 18 21 16 10 8 11 11 17 30 26 17 18 19 18 19 18 15 15 16 16 17 17 16
10 9 7 6 4 4 3 2 2 3 3 4 4 2 1 1 1 3 5 4 6 11 12 13 14 14 15 15 16 16 15 15 16 17 16 16 15 15 16 16 18 21 22 20 17 13 15 21 23 24 28 29 27 22 23 24 25 29 29 33 33 27 29 23 14 21 19 10 10 10 12 9 13 28 23 17 22 23 20 19 16 14 14 15 17 17 18 18
8 6 5 4 3 3 2 1 1 2 2 2 1 1 2 2 2 2 4 3 7 10 11 11 13 13 13 13 14 14 15 15 16 16 14 15 15 15 17 16 16 19 19 19 19 15 13 20 22 22 27 30 25 21 22 23 25 28 30 34 33 30 30 18 15 24 14 6 13 14 16 11 7 16 18 18 22 21 20 19 19 19 17 17 19 19 20 22
5 4 3 3 3 2 2 1 1 1 2 2 3 3 2 2 1 2 3 3 6 9 10 11 13 13 13 13 14 15 15 14 14 14 12 14 14 13 16 19 18 19 19 20 22 18 15 19 23 23 27 30 25 22 22 22 24 27 31 36 34 32 29 17 17 20 4 6 17 18 20 14 7 12 16 18 18 16 18 20 23 24 22 20 21 22 24 26
4 4 3 3 4 3 3 4 4 6 6 6 5 5 5 5 5 6 5 2 4 6 9 11 12 13 14 14 14 15 15 15 16 17 17 19 21 21 23 27 25 23 23 24 25 21 15 18 23 24 27 30 27 26 25 23 25 27 33 37 28 19 17 11 10 8 3 11 23 22 20 15 15 20 20 19 17 15 17 18 20 22 23 24 26 28 30 32
5 5 4 5 5 5 6 5 5 7 6 6 7 6 9 9 7 6 6 4 3 6 9 11 12 13 14 14 15 15 15 17 18 19 20 20 23 26 26 27 26 24 21 21 25 25 19 18 23 26 27 28 26 27 27 26 26 27 33 34 20 7 6 6 5 4 6 18 31 32 22 15 17 18 19 20 19 20 20 19 20 22 25 29 31 34 37 38
8 8 8 8 8 8 9 8 7 7 7 8 10 11 14 14 9 8 9 6 5 7 10 11 11 12 14 15 15 15 16 17 18 19 19 18 21 25 25 25 25 24 23 20 22 26 20 14 20 28 27 25 24 22 23 25 23 24 30 28 19 9 3 4 5 5 9 20 34 34 18 13 17 17 19 23 23 23 22 22 24 27 31 35 39 43 45 47
10 10 10 10 9 10 9 10 12 10 10 12 12 14 16 13 9 10 9 6 5 5 7 11 11 10 12 15 16 16 16 18 18 19 20 19 23 26 25 25 25 24 25 21 18 22 20 12 16 26 26 23 23 21 22 24 20 22 28 26 24 18 7 9 13 17 16 14 21 23 18 22 27 26 27 28 28 27 23 25 30 33 38 42 46 50 53 56
10 10 10 10 10 10 9 11 12 12 14 14 12 16 17 12 10 11 10 9 9 7 5 8 10 10 12 13 15 17 16 18 18 18 21 20 21 26 26 24 25 25 24 22 18 20 20 14 15 24 25 21 22 21 21 23 20 21 26 27 28 22 13 13 16 19 15 7 11 18 23 29 25 23 30 30 30 31 30 34 40 44 49 50 53 58 62 65
12 12 12 11 11 12 11 12 12 13 14 9 8 16 18 15 13 12 11 11 11 10 8 9 10 12 14 14 15 17 16 17 18 18 21 20 18 23 25 23 23 24 23 23 21 19 20 16 16 24 26 21 22 22 20 21 22 22 25 28 27 20 16 13 8 8 8 4 10 18 27 34 24 19 29 32 33 38 41 46 50 53 56 58 60 64 67 70
15 15 14 14 14 13 13 12 12 13 10 5 10 18 17 15 14 12 11 11 11 12 12 12 13 14 17 16 16 17 17 18 20 19 21 20 16 19 24 22 21 22 22 22 22 23 22 15 15 25 26 21 22 22 21 23 24 23 25 27 23 14 13 15 9 7 7 3 6 15 27 36 29 23 31 36 38 42 45 50 55 58 61 62 64 67 70 73
17 16 15 16 15 14 14 12 11 11 8 6 14 18 15 15 14 12 12 11 11 12 13 14 15 15 17 18 17 17 18 19 21 19 20 20 16 17 22 21 19 20 21 22 22 25 23 12 13 25 26 23 25 25 25 26 25 26 26 26 23 13 13 20 18 13 9 5 5 10 15 22 25 28 34 37 37 42 50 58 62 61 60 60 63 68 72 74
15 15 16 16 15 14 15 15 12 10 9 12 17 17 15 15 14 12 12 12 12 13 14 15 16 16 17 17 17 17 17 18 20 19 19 20 17 17 20 20 18 19 21 22 23 25 22 12 17 29 28 25 26 25 24 22 21 25 28 26 25 22 20 23 23 20 13 5 3 5 9 21 31 31 32 33 40 52 62 63 59 54 54 59 66 71 74 74
13 13 16 16 14 14 16 16 12 10 12 16 17 16 15 14 12 13 13 13 14 14 14 15 15 16 16 16 17 16 16 17 18 18 17 19 19 18 20 19 17 19 21 21 23 25 20 15 23 33 31 27 28 26 22 20 20 25 28 27 27 26 22 15 14 21 22 14 12 9 10 26 33 25 25 37 50 61 62 57 53 51 57 66 72 76 77 76
11 13 15 13 13 15 15 13 12 12 14 16 15 14 14 13 12 13 12 13 14 14 14 15 15 16 15 16 16 16 15 15 17 18 17 19 19 18 20 18 17 19 21 21 23 24 20 18 26 32 29 27 28 26 23 22 25 30 29 29 27 22 18 13 9 19 26 24 24 16 12 25 30 23 32 49 57 58 57 54 54 57 65 72 76 78 77 73
10 12 14 11 12 15 12 10 12 13 13 14 14 13 13 13 13 13 12 13 13 13 14 14 14 15 15 15 16 16 16 15 16 18 17 17 19 19 19 17 17 19 21 21 23 24 19 19 27 33 34 36 36 32 28 27 30 33 31 31 29 23 22 20 13 17 22 20 19 10 9 27 36 34 45 56 55 54 55 56 59 64 71 75 76 77 73 69
9 12 14 12 12 13 12 11 12 11 12 14 14 13 13 13 13 13 12 12 12 12 13 14 15 15 15 15 16 17 17 15 16 17 17 17 18 18 17 15 16 19 21 21 23 23 19 18 22 26 27 31 35 34 34 36 35 34 32 32 32 30 28 23 17 17 16 18 21 11 11 34 45 45 55 60 55 56 56 58 63 69 74 76 76 74 71 69
8 10 12 13 12 10 10 12 12 10 12 12 12 12 12 12 12 11 11 12 12 12 12 14 14 15 16 16 15 17 17 16 17 16 16 17 17 17 16 14 16 20 21 22 23 23 22 19 17 17 12 11 17 21 28 36 36 33 34 34 33 32 28 24 21 17 14 24 34 23 23 43 53 55 63 64 58 57 57 61 68 73 76 76 73 72 71 70
7 9 11 13 12 8 9 12 12 10 11 10 10 11 11 10 11 11 11 12 11 12 13 14 14 15 16 16 16 17 17 17 17 17 17 17 17 17 15 13 17 21 21 23 24 25 25 21 18 19 18 16 21 23 24 28 29 32 35 35 33 28 24 24 23 19 20 27 36 35 36 47 58 63 67 62 54 55 61 69 75 76 75 74 73 72 70 64
8 9 9 9 10 10 10 12 12 11 9 8 9 11 10 10 10 10 11 12 11 12 12 14 15 15 17 18 17 17 18 17 18 19 18 17 17 17 14 13 16 21 22 23 25 26 27 25 23 26 28 28 26 24 24 23 26 32 36 34 30 25 24 27 25 25 26 21 29 43 48 49 58 66 62 54 53 61 70 76 77 76 75 74 73 70 64 59
8 9 9 8 9 9 10 11 11 11 10 8 9 10 10 9 10 10 10 10 11 12 12 13 15 16 18 19 19 19 19 19 19 19 17 16 16 15 14 13 15 19 22 23 25 27 27 27 30 33 36 34 26 23 26 27 29 35 35 31 27 24 27 31 29 29 30 25 32 48 53 53 61 63 55 53 60 69 75 77 75 75 75 73 71 66 62 60
9 10 11 10 9 9 9 10 10 10 9 9 9 10 9 9 9 9 9 10 11 12 12 13 15 17 18 19 20 21 22 22 22 20 18 16 15 14 13 13 15 19 22 23 26 28 27 30 34 36 41 39 29 26 31 32 34 36 30 23 24 27 30 31 31 33 36 38 44 51 56 61 62 56 53 59 68 73 76 75 75 75 74 72 69 66 64 61
10 10 10 9 8 9 9 10 10 9 8 9 9 9 9 9 9 9 9 10 11 12 13 14 15 17 18 19 20 21 22 22 21 20 18 16 16 15 13 12 15 18 20 23 25 27 29 33 35 37 42 40 34 33 37 38 38 30 19 20 30 37 37 34 34 36 40 47 54 57 61 64 58 53 58 67 72 75 75 74 75 75 72 70 68 66 65 61
11 10 10 9 8 8 9 9 9 8 8 9 9 9 8 9 9 9 10 11 12 13 14 14 15 17 17 18 19 20 21 21 19 18 16 15 15 14 12 13 16 18 20 23 24 27 30 33 36 38 40 40 40 41 43 43 33 19 17 30 39 39 38 37 37 39 45 52 58 62 61 58 56 59 68 74 76 76 75 75 75 73 71 70 68 65 64 64
13 12 12 10 7 8 9 9 8 8 8 9 8 9 8 9 10 10 11 12 12 13 14 15 15 16 17 18 19 20 20 19 17 15 13 13 14 11 10 13 17 20 22 23 24 28 31 34 38 36 34 37 41 44 48 40 20 14 28 39 36 32 35 40 44 47 49 52 56 59 56 55 61 70 76 78 78 76 76 75 74 71 70 69 68 65 65 69
Wind_Direction
180 179 181 177 180 204 237 260 280 300 317 324 316 307 306 311 323 318 314 319 320 323 329 334 337 335 329 325 318 305 297 293 299 306 316 322 326 332 332 326 318 311 307 307 307 304 307 310 311 311 305 302 302 300 297 294 291 288 284 281 285 292 298 303 306 307 305 305 305 305 304 302 303 302 299 298 300 303 303 306 306 301 296 294 295 292 287 278
176 180 178 176 194 224 244 262 279 296 316 324 312 305 311 315 323 319 319 321 323 329 339 348 352 348 340 339 336 324 307 302 306 307 312 317 317 321 324 320 316 311 307 305 303 301 302 306 308 308 304 303 303 304 303 298 294 292 288 286 293 298 301 305 307 306 304 303 304 305 303 302 304 303 301 302 304 307 310 312 303 295 292 291 292 291 289 284
177 178 177 188 209 228 244 263 277 299 317 314 304 304 313 319 325 320 319 324 332 342 354 3 6 1 355 347 336 321 311 307 306 311 311 310 311 315 317 313 310 307 303 301 300 300 301 303 306 306 304 303 302 303 302 299 294 291 291 294 302 303 305 309 307 305 305 304 303 302 300 301 303 303 305 306 308 315 318 315 307 303 303 300 298 295 296 298
177 178 185 199 214 230 247 266 283 304 306 296 290 292 312 321 322 316 320 335 349 359 7 9 7 6 12 346 329 345 342 310 281 315 318 308 310 311 311 309 307 304 301 301 301 301 303 301 300 303 303 300 298 296 296 297 294 293 298 303 307 307 310 312 308 307 306 304 304 303 302 303 305 305 308 310 314 322 320 313 310 308 309 308 304 301 303 305
178 183 192 205 217 234 251 268 287 293 280 273 264 300 317 316 316 316 330 351 3 6 4 1 0 6 22 6 321 281 330 325 275 303 315 308 307 307 307 308 306 305 305 306 305 304 302 296 292 294 295 293 290 293 300 302 300 304 309 311 311 311 312 311 309 308 307 306 308 307 307 309 309 308 312 316 324 329 317 305 300 299 299 296 294 295 296 296
181 189 196 207 221 237 251 267 275 268 258 246 261 314 312 309 315 327 346 3 7 5 4 4 10 19 26 18 356 304 322 335 308 306 312 310 310 310 310 310 309 307 311 311 308 304 299 296 292 291 293 296 301 308 312 309 309 313 316 318 316 313 313 312 311 309 307 310 312 311 312 314 312 310 318 328 333 324 309 298 294 292 291 290 288 285 283 282
182 188 196 209 222 234 244 253 252 240 229 222 299 306 301 307 325 344 360 7 7 9 11 15 23 27 25 15 357 341 342 345 332 325 324 323 324 320 317 318 311 307 316 314 309 305 304 302 298 301 312 319 321 320 318 314 315 317 320 322 319 315 314 312 311 309 309 313 313 314 316 318 313 311 323 335 322 305 297 293 293 293 294 295 293 289 287 284
179 185 195 207 218 223 223 222 216 203 199 258 293 290 295 316 343 1 8 8 7 12 21 29 29 24 19 9 357 359 3 360 354 348 340 333 329 325 326 325 316 317 323 316 314 315 315 317 323 333 337 335 331 327 323 320 318 320 322 321 317 316 315 313 314 313 314 315 315 316 319 318 313 315 325 323 300 292 297 302 303 305 311 313 311 308 304 301
173 181 190 199 204 198 188 187 185 189 227 271 280 284 306 343 8 9 6 4 8 24 35 35 29 25 19 10 3 11 13 8 4 355 342 334 333 336 333 327 329 334 330 327 342 349 345 346 349 349 343 338 335 331 328 325 323 322 323 323 320 319 316 315 316 316 317 318 317 316 319 320 319 322 321 303 299 307 317 321 322 332 345 344 338 336 331 326
167 173 178 183 180 172 172 177 185 214 255 269 279 299 13 31 17 6 2 12 26 34 39 40 36 32 28 22 14 16 15 10 3 353 351 353 356 355 343 344 360 1 355 360 10 9 1 355 351 346 342 339 336 334 331 330 329 328 328 326 325 324 319 318 320 320 321 321 317 318 324 330 333 330 314 311 324 339 353 360 358 2 2 356 352 351 349 349
158 162 166 167 165 166 173 184 208 239 258 267 77 84 68 40 18 11 21 40 46 46 50 48 43 42 39 34 27 28 27 24 22 16 16 14 14 15 12 15 16 10 8 8 9 6 360 354 348 343 342 339 337 338 335 335 336 334 333 329 330 329 319 320 326 325 325 324 320 323 334 345 343 330 321 335 357 6 11 14 6 3 0 357 355 352 351 353
157 159 160 163 166 171 181 199 217 224 133 97 93 86 62 42 37 43 53 58 60 63 61 54 51 53 49 46 46 46 43 40 37 32 30 26 24 23 19 18 12 5 2 360 357 354 358 354 345 343 344 341 342 342 338 342 346 339 338 341 342 338 327 328 337 337 334 333 328 332 349 3 347 333 332 351 12 14 10 6 0 358 357 357 356 353 353 353
163 164 164 167 172 170 171 166 138 106 95 95 89 80 63 60 64 67 70 70 72 73 69 65 67 65 59 56 53 51 47 43 38 34 32 29 25 19 15 11 5 0 353 348 347 351 359 353 345 347 348 348 351 350 348 355 352 346 351 356 354 360 349 341 349 352 342 337 334 341 354 0 354 343 340 352 5 7 6 359 357 356 355 358 358 357 357 355
164 164 162 158 151 140 130 116 110 101 99 94 85 81 76 78 79 78 80 80 81 80 81 79 72 68 59 52 49 46 41 35 29 25 25 23 20 16 12 5 357 353 346 341 344 351 356 352 352 354 355 2 3 360 6 7 357 360 11 8 4 9 2 353 358 360 354 346 340 347 354 356 3 4 347 346 350 351 352 352 353 356 359 1 359 358 357 356
155 150 144 137 129 124 117 112 108 104 101 93 89 88 88 90 87 87 87 86 86 83 81 73 65 61 54 50 44 36 32 28 24 21 19 15 11 10 7 2 353 348 345 343 346 350 352 358 2 3 2 3 0 2 20 16 10 16 19 15 11 7 4 4 4 0 359 354 347 349 354 356 2 7 351 340 339 339 340 344 347 353 1 2 1 2 1 358
142 138 136 130 123 118 112 110 107 104 100 95 96 95 96 97 92 92 88 85 85 78 74 65 58 53 47 45 37 32 29 25 23 21 18 12 8 5 2 2 354 351 354 353 355 356 355 4 8 7 7 8 7 14 31 24 20 24 19 14 11 6 2 4 6 2 358 353 349 351 353 352 353 352 342 332 330 331 332 337 341 348 357 359 359 360 358 357
133 132 128 121 117 113 110 110 106 104 102 102 104 101 100 96 91 91 87 87 82 76 72 61 55 51 47 44 36 33 30 26 24 20 18 13 8 3 3 6 359 358 3 1 2 0 359 7 11 11 18 24 26 26 32 25 18 19 17 11 9 6 0 357 359 1 359 352 342 345 353 347 340 339 334 325 322 323 327 334 341 349 355 355 355 353 352 354
125 123 120 117 116 114 113 111 107 105 103 102 102 101 98 90 88 90 88 86 78 76 71 57 54 52 47 43 38 35 28 24 23 21 19 14 9 6 9 7 1 3 6 2 2 4 6 11 14 23 29 29 28 27 30 26 15 13 13 9 5 5 2 354 352 353 355 356 342 335 350 347 333 331 333 328 321 321 330 338 345 351 353 352 350 350 351 352
120 119 119 119 118 118 116 112 109 103 97 96 98 98 94 86 82 79 78 78 76 77 68 57 54 51 45 37 33 32 26 24 22 19 15 11 10 12 9 5 7 12 10 9 14 18 19 22 27 29 27 26 25 25 25 21 15 11 11 9 2 1 2 356 350 349 346 353 351 335 342 348 332 316 330 334 326 327 336 342 346 347 348 349 346 346 349 350
121 121 121 121 120 120 117 114 111 104 100 97 96 95 90 86 82 78 82 85 76 70 64 55 49 48 46 38 33 28 22 22 18 12 9 11 17 15 11 14 18 19 21 28 35 31 28 33 38 33 27 26 23 22 19 15 12 9 9 9 4 359 0 1 355 351 342 346 351 339 341 349 333 312 324 334 330 332 338 339 342 343 344 346 343 342 346 347
120 121 121 122 122 121 119 117 112 107 104 99 95 93 90 90 88 85 88 82 70 63 57 50 43 42 43 42 39 29 16 6 3 7 17 28 29 22 21 26 27 31 38 41 41 38 34 37 41 34 27 26 22 20 17 11 7 8 7 6 5 0 358 360 357 352 344 343 346 340 344 360 355 336 331 336 334 335 338 337 337 338 340 342 337 332 334 331
118 120 121 122 122 121 118 115 110 108 105 101 98 97 95 93 87 83 79 71 63 57 52 45 40 36 34 39 37 29 20 356 359 18 39 44 36 30 33 39 42 44 45 45 44 43 40 40 40 31 28 26 21 20 16 11 6 6 7 3 4 1 355 353 354 354 347 343 345 343 346 7 10 357 348 349 347 339 338 337 334 333 335 332 319 310 309 304
119 119 119 119 119 117 115 113 112 111 106 105 105 102 96 88 82 77 70 66 61 57 53 46 41 38 37 39 33 30 34 40 38 42 48 44 39 39 41 44 46 45 46 47 45 43 43 42 36 30 28 22 19 19 14 13 9 6 6 2 1 0 354 346 346 351 349 346 346 343 345 2 6 0 0 3 359 348 338 330 331 332 325 311 301 298 293 292
117 117 116 116 116 115 117 117 116 113 109 111 111 103 93 85 82 74 65 62 57 53 50 45 42 40 42 48 51 43 40 44 45 47 49 44 42 43 42 44 46 45 44 45 44 43 44 40 33 29 24 18 16 13 10 11 10 7 4 0 358 356 352 343 341 345 348 351 348 343 343 348 357 359 2 12 13 354 335 305 295 303 296 291 286 286 287 289
112 114 114 114 116 118 121 122 119 114 111 117 117 103 93 93 88 71 57 50 47 47 45 43 41 41 45 48 53 52 44 44 46 47 47 44 44 44 43 45 46 46 43 43 43 42 43 38 32 28 21 16 12 9 10 8 6 6 1 358 355 351 349 343 340 341 346 350 347 347 347 335 346 356 359 6 12 328 324 289 272 266 271 277 273 276 282 287
109 112 113 114 117 119 124 125 120 113 115 130 130 119 113 106 78 38 26 28 34 38 40 41 39 39 45 48 49 53 46 42 44 47 45 45 47 45 46 45 44 46 42 39 40 39 39 35 32 28 20 15 11 9 10 5 3 2 358 356 352 347 346 344 341 343 345 344 341 346 2 325 336 350 353 340 328 318 309 301 285 267 266 271 271 272 274 277
109 111 113 115 116 117 125 129 126 120 133 155 154 153 157 251 315 324 332 7 18 23 32 35 36 39 45 48 47 50 50 41 42 47 44 44 45 44 45 43 43 44 39 35 37 36 35 32 30 26 20 15 11 9 6 3 1 358 355 352 348 344 346 347 344 346 341 336 334 330 339 322 321 341 341 306 313 323 301 309 312 287 273 269 268 269 272 279
106 108 109 112 111 113 126 138 163 216 233 203 201 218 255 291 301 320 16 67 9 13 26 31 36 42 44 48 47 50 54 47 44 47 44 43 43 42 42 41 41 41 36 34 34 32 27 24 23 20 18 16 11 7 1 359 358 356 353 349 346 345 348 349 345 344 339 333 333 313 331 328 305 328 330 287 301 317 301 309 318 300 281 274 272 270 277 287
98 99 99 101 101 109 128 167 220 248 245 228 233 246 275 4 74 70 77 79 16 19 29 31 40 42 42 49 49 51 53 48 45 43 39 39 39 38 38 38 39 37 34 30 27 27 21 18 17 16 16 14 10 6 359 359 358 355 351 346 345 347 349 351 349 346 341 324 326 321 331 336 304 318 316 282 297 308 304 310 314 305 291 286 286 283 287 293
85 86 89 93 96 104 117 172 226 243 244 230 204 164 134 110 107 76 76 60 26 29 35 39 45 44 47 51 51 52 51 49 48 43 39 39 36 35 37 38 39 37 35 32 29 28 21 18 16 14 13 10 9 9 2 360 358 354 350 346 347 349 351 354 348 347 348 315 325 323 320 323 301 304 293 286 302 303 303 306 304 303 295 291 295 295 299 302
75 78 88 89 93 98 92 96 101 102 106 107 129 148 147 167 154 79 95 69 34 32 38 45 48 49 51 50 48 47 44 46 48 44 41 35 25 22 29 31 31 31 29 29 29 29 27 20 17 15 9 5 8 9 4 2 358 354 352 353 353 351 351 352 345 351 10 295 319 315 312 309 267 271 277 288 299 294 296 298 297 300 301 306 308 308 311 313
84 86 90 87 91 92 87 97 102 106 110 107 106 109 107 105 83 81 103 90 25 28 39 47 48 48 47 44 44 40 35 35 34 31 30 26 21 21 25 26 26 26 23 21 21 23 30 26 19 16 8 5 5 3 3 4 359 355 357 2 4 354 352 350 338 345 237 293 315 313 312 300 271 269 271 276 284 291 301 301 301 304 309 314 316 316 317 317
98 96 95 93 93 91 92 102 114 120 119 101 93 100 105 98 79 78 93 90 64 51 46 47 44 44 42 39 38 34 30 30 27 27 27 26 27 29 31 28 27 28 23 17 15 14 20 24 19 15 9 7 5 1 1 360 358 0 3 8 12 5 355 335 305 314 293 304 312 312 307 295 283 273 265 269 275 285 294 300 308 313 315 316 316 316 314 313
100 96 94 93 91 91 92 90 99 117 116 99 98 102 99 93 85 86 87 88 85 62 48 44 39 37 36 35 33 29 28 29 27 26 24 23 26 29 31 28 27 27 22 20 18 13 10 10 13 13 9 7 8 6 2 357 357 1 3 5 3 356 333 279 282 287 290 299 306 308 303 294 297 286 274 275 274 278 289 300 309 314 318 319 318 318 318 318
99 95 93 93 91 92 94 87 88 102 109 107 108 103 94 89 90 89 78 75 77 58 47 45 39 35 34 32 30 26 27 29 26 23 22 22 25 26 25 25 24 23 21 21 20 14 8 5 14 13 8 6 9 9 2 358 359 357 359 0 353 343 302 267 282 282 283 293 302 300 291 290 291 285 281 280 278 280 288 299 306 312 315 317 318 320 323 324
95 91 91 93 89 86 92 94 91 96 105 111 106 95 94 97 99 90 75 69 65 55 52 46 37 38 38 32 30 27 25 27 24 22 22 22 25 24 21 22 21 19 20 20 17 12 7 7 18 14 9 8 9 9 4 1 358 353 355 355 347 339 317 290 286 288 291 289 291 291 291 293 290 285 286 281 276 278 285 295 303 307 310 312 316 320 324 327
89 86 87 90 90 86 86 94 98 101 108 120 103 91 97 99 94 89 79 69 61 54 53 46 36 36 35 32 32 28 25 27 24 23 24 22 22 21 18 18 18 17 18 17 15 9 359 359 12 11 9 9 6 5 4 1 359 353 352 350 344 336 325 309 284 297 307 267 281 290 293 296 293 288 290 287 285 290 295 301 306 308 311 314 317 320 325 330
87 85 85 85 88 86 86 91 97 101 112 134 100 96 100 95 87 85 74 62 59 51 46 46 40 35 32 31 31 27 24 26 25 24 25 22 18 17 16 14 14 15 15 14 13 7 358 352 1 6 7 7 5 2 360 359 357 351 346 346 343 332 319 314 302 303 307 281 284 286 290 294 293 293 297 299 301 304 308 313 316 317 318 320 323 326 329 330
84 86 87 85 85 87 90 92 88 98 123 126 100 98 97 91 84 78 68 60 56 50 46 46 41 36 34 32 30 27 26 27 25 25 25 21 17 14 13 10 10 13 12 12 11 6 0 346 343 358 4 5 2 0 358 356 351 345 342 343 341 329 307 308 306 296 284 280 296 292 290 293 296 302 306 307 311 317 322 323 322 322 323 326 328 328 328 328
83 87 88 86 88 90 91 91 89 104 117 101 95 96 92 89 83 74 67 59 53 51 49 46 40 37 34 30 29 27 27 27 24 24 23 19 16 11 9 7 7 10 9 9 8 3 2 349 335 349 360 6 3 358 357 354 345 339 339 340 336 327 321 317 310 304 300 288 285 299 289 292 302 310 311 313 321 325 326 321 318 320 325 327 328 328 328 329
85 88 90 90 93 92 89 90 92 97 95 88 89 90 87 84 78 71 66 57 53 51 46 42 38 35 30 28 28 24 26 27 23 22 18 15 14 10 6 4 6 10 7 7 6 2 2 354 342 346 353 0 358 354 357 358 347 338 337 336 330 325 328 328 308 304 304 294 289 295 286 294 305 316 317 318 323 325 321 314 311 318 323 325 327 328 328 327
84 84 89 93 91 87 87 91 86 79 81 84 86 85 82 79 73 68 62 56 52 45 40 39 33 31 29 25 24 22 22 24 23 20 14 10 10 6 4 5 9 9 7 7 5 1 1 357 348 345 346 352 355 354 357 358 347 339 335 328 322 319 324 323 296 298 301 295 295 295 280 295 307 317 318 320 323 321 315 309 312 318 322 324 325 323 321 321
79 80 83 85 82 82 83 80 75 74 77 80 79 79 77 72 66 61 55 50 46 40 38 36 30 29 26 21 21 20 18 19 20 17 11 6 6 4 4 8 9 9 8 8 4 2 5 0 351 346 344 348 352 352 353 352 344 337 330 324 320 320 323 320 307 306 305 300 306 310 277 297 308 315 320 323 323 319 315 314 317 320 321 322 321 319 320 322
70 78 82 77 75 82 81 68 65 71 76 77 77 74 70 66 62 57 51 46 43 40 36 33 29 26 21 18 19 17 16 17 15 12 9 4 2 2 4 8 10 8 8 7 4 4 7 3 357 352 346 346 349 349 346 344 340 332 325 321 318 318 320 321 324 325 312 304 317 321 278 298 310 317 323 326 323 318 318 318 319 320 320 320 320 321 324 325
55 74 81 76 72 76 77 68 60 61 69 77 77 70 64 63 61 55 50 47 44 38 33 31 27 23 19 17 15 14 15 14 11 8 6 2 0 1 3 7 9 6 5 3 2 3 3 4 5 1 348 331 330 331 332 332 330 326 323 319 316 317 321 329 338 335 316 313 315 304 286 303 315 321 324 325 321 318 320 320 319 321 321 321 323 325 326 327
47 67 78 81 73 59 61 68 62 54 60 67 70 68 63 59 58 54 49 47 42 35 32 29 23 19 17 14 12 12 11 10 8 5 4 2 359 360 1 3 5 4 2 359 358 359 358 358 358 350 339 325 318 320 328 327 320 321 323 317 314 317 324 337 346 336 323 316 308 304 307 312 318 324 325 323 319 319 322 321 321 323 323 324 326 327 328 329
47 62 71 78 74 60 59 68 63 52 50 52 59 67 65 56 52 49 46 44 38 31 29 25 18 15 13 11 10 9 7 6 4 2 3 2 358 358 358 358 2 1 357 356 357 355 353 352 348 341 338 337 333 331 334 328 319 322 322 316 313 314 322 337 344 340 335 317 300 314 323 318 318 323 323 320 320 322 323 323 323 324 325 327 329 330 331 332
50 65 64 63 67 63 61 66 64 55 45 42 52 65 63 53 49 46 43 38 31 25 21 18 14 10 9 8 7 4 3 2 1 1 2 0 357 359 357 356 0 357 353 355 354 352 351 349 345 339 338 342 345 341 338 332 326 326 321 313 311 313 322 334 339 339 337 321 310 320 324 318 318 322 320 319 322 323 323 323 325 326 328 330 331 332 333 334
53 64 60 53 57 63 61 61 64 59 45 40 51 60 56 47 44 40 36 30 22 18 14 11 10 8 6 6 4 2 1 359 358 358 359 359 358 359 0 3 1 353 351 352 351 351 350 347 345 340 338 344 350 345 339 335 329 327 321 313 315 317 324 334 339 339 336 327 322 323 321 318 320 321 318 319 321 322 324 326 327 329 331 332 334 334 334 334
49 57 57 46 46 61 64 59 61 60 47 40 48 55 50 40 34 26 22 21 15 12 8 6 6 5 4 4 3 2 1 358 354 352 354 358 357 355 2 6 358 350 349 350 349 350 349 346 346 341 337 344 351 343 338 337 333 327 320 319 324 323 324 334 341 340 336 330 326 324 321 319 321 320 318 319 322 325 328 328 329 331 332 334 335 334 334 331
44 49 54 40 33 57 64 58 59 57 45 41 44 47 41 32 24 15 11 12 8 6 4 2 2 2 0 1 1 360 359 357 353 349 351 356 354 352 355 356 353 348 348 349 348 348 348 346 347 344 337 341 347 342 338 339 334 328 329 330 328 324 322 330 339 339 336 331 327 324 322 320 320 320 320 323 326 329 330 329 330 332 335 336 335 333 331 327
43 44 49 37 29 56 62 54 52 46 39 39 37 35 30 22 17 11 8 7 2 0 0 358 358 358 357 357 358 359 357 355 354 351 351 354 351 346 342 344 347 347 347 349 347 347 350 348 349 348 335 335 344 341 337 341 341 336 336 330 323 321 320 322 329 332 332 329 326 323 320 318 319 322 325 327 329 330 329 329 331 333 336 336 335 331 327 324